Zurück zum Katalog

STARLINK-3207

AktivKommunikationVLEO
NORAD 49756·PAYLOAD·🇺🇸 United States

Gestartet Dec 2, 2021 von Cape Canaveral Space Force Station

Loading…

Nächste Überflüge (nächste 24 Stunden)

TLE

AktuellSource: CelesTrak SupGP

Epoche: Sep 14, 2026, 20:31 UTC

1 49756C 21115AJ  26257.85534722 -.00019646  00000+0 -58050-3 0  2574
2 49756  53.1591 355.8810 0001192  74.6733 259.3452 15.34397871    19

Verfolge STARLINK-3207 in Echtzeit mit AllMySat

Download on the App Store